| time (UTC) | temp C | wind direction | speed KPH | gust KPH | rain 1hr cm | rain 24hr cm | rain mn cm | humidity % | barometer mb |
| 20260506051354 | 20 | 1 | 3.2 | 3.2 | 0.00 | 0.00 | 0.00 | 79 | 1031.9 |
| 20260506050852 | 20 | 359 | 3.2 | 4.8 | 0.00 | 0.00 | 0.00 | 78 | 1032.0 |
| 20260506050349 | 20 | 10 | 1.6 | 3.2 | 0.00 | 0.00 | 0.00 | 78 | 1031.9 |
| 20260506044839 | 20 | 356 | 3.2 | 3.2 | 0.00 | 0.00 | 0.00 | 78 | 1031.8 |
| 20260506044338 | 21 | 356 | 3.2 | 3.2 | 0.00 | 0.00 | 0.00 | 77 | 1031.7 |
| 20260506043834 | 21 | 344 | 1.6 | 1.6 | 0.00 | 0.00 | 0.00 | 77 | 1031.7 |
| 20260506043331 | 21 | 4 | 3.2 | 4.8 | 0.00 | 0.00 | 0.00 | 77 | 1031.8 |
| 20260506042830 | 21 | 8 | 1.6 | 3.2 | 0.00 | 0.00 | 0.00 | 78 | 1031.4 |
| 20260506042328 | 21 | 12 | 0.0 | 1.6 | 0.00 | 0.00 | 0.00 | 77 | 1031.5 |
| 20260506041827 | 21 | 7 | 0.0 | 1.6 | 0.00 | 0.00 | 0.00 | 77 | 1031.8 |
| 20260506041323 | 21 | 14 | 1.6 | 3.2 | 0.00 | 0.00 | 0.00 | 77 | 1031.7 |
| 20260506040821 | 21 | 358 | 3.2 | 3.2 | 0.00 | 0.00 | 0.00 | 77 | 1031.9 |
| 20260506040318 | 21 | 17 | 0.0 | 0.0 | 0.00 | 0.00 | 0.00 | 77 | 1031.7 |
| 20260506035814 | 21 | 12 | 1.6 | 3.2 | 0.00 | 0.00 | 0.00 | 76 | 1031.6 |
| 20260506035312 | 21 | 340 | 3.2 | 3.2 | 0.00 | 0.00 | 0.00 | 76 | 1031.8 |
| 20260506034809 | 21 | 358 | 4.8 | 4.8 | 0.00 | 0.00 | 0.00 | 75 | 1031.9 |
| 20260506034306 | 21 | 1 | 4.8 | 4.8 | 0.00 | 0.00 | 0.00 | 75 | 1031.9 |
| 20260506033803 | 21 | 15 | 1.6 | 3.2 | 0.00 | 0.00 | 0.00 | 75 | 1031.5 |
| 20260506033300 | 21 | 15 | 3.2 | 3.2 | 0.00 | 0.00 | 0.00 | 75 | 1031.9 |
| 20260506032756 | 21 | 8 | 1.6 | 3.2 | 0.00 | 0.00 | 0.00 | 74 | 1031.8 |
| 20260506032253 | 21 | 3 | 3.2 | 4.8 | 0.00 | 0.00 | 0.00 | 74 | 1031.8 |
| 20260506031750 | 21 | 4 | 3.2 | 4.8 | 0.00 | 0.00 | 0.00 | 73 | 1031.8 |
| 20260506031247 | 21 | 358 | 1.6 | 1.6 | 0.00 | 0.00 | 0.00 | 73 | 1031.6 |
| 20260506030745 | 21 | 8 | 3.2 | 3.2 | 0.00 | 0.00 | 0.00 | 73 | 1031.4 |
| 20260506030243 | 21 | 17 | 0.0 | 0.0 | 0.00 | 0.00 | 0.00 | 73 | 1031.6 |
| 20260506025740 | 21 | 14 | 1.6 | 1.6 | 0.00 | 0.00 | 0.00 | 72 | 1031.6 |
| 20260506025236 | 21 | 16 | 0.0 | 1.6 | 0.00 | 0.00 | 0.00 | 72 | 1031.6 |
| 20260506024733 | 21 | 12 | 3.2 | 3.2 | 0.00 | 0.00 | 0.00 | 71 | 1031.4 |
| 20260506024230 | 21 | 15 | 0.0 | 0.0 | 0.00 | 0.00 | 0.00 | 71 | 1031.5 |
| 20260506023726 | 21 | 13 | 0.0 | 0.0 | 0.00 | 0.00 | 0.00 | 71 | 1031.6 |
| 20260506023223 | 21 | 17 | 0.0 | 0.0 | 0.00 | 0.00 | 0.00 | 71 | 1031.3 |
| 20260506022720 | 21 | 16 | 0.0 | 0.0 | 0.00 | 0.00 | 0.00 | 71 | 1031.5 |
| 20260506022218 | 21 | 15 | 0.0 | 0.0 | 0.00 | 0.00 | 0.00 | 70 | 1031.3 |
| 20260506021715 | 21 | 16 | 0.0 | 0.0 | 0.00 | 0.00 | 0.00 | 70 | 1031.1 |
| 20260506021212 | 21 | 8 | 0.0 | 0.0 | 0.00 | 0.00 | 0.00 | 70 | 1031.4 |
| 20260506020709 | 21 | 2 | 0.0 | 0.0 | 0.00 | 0.00 | 0.00 | 69 | 1031.5 |
| 20260506020207 | 21 | 1 | 0.0 | 0.0 | 0.00 | 0.00 | 0.00 | 69 | 1031.2 |
| 20260506015704 | 21 | 356 | 0.0 | 0.0 | 0.00 | 0.00 | 0.00 | 69 | 1031.3 |
| 20260506015202 | 21 | 359 | 0.0 | 0.0 | 0.00 | 0.00 | 0.00 | 69 | 1031.3 |
| 20260506014658 | 21 | 359 | 0.0 | 0.0 | 0.00 | 0.00 | 0.00 | 69 | 1031.2 |
| 20260506014154 | 21 | 359 | 0.0 | 0.0 | 0.00 | 0.00 | 0.00 | 69 | 1031.3 |
| 20260506013652 | 21 | 359 | 0.0 | 0.0 | 0.00 | 0.00 | 0.00 | 69 | 1031.3 |
| 20260506013149 | 21 | 359 | 0.0 | 0.0 | 0.00 | 0.00 | 0.00 | 69 | 1031.1 |
| 20260506012645 | 21 | 359 | 0.0 | 0.0 | 0.00 | 0.00 | 0.00 | 69 | 1031.3 |
| 20260506012142 | 21 | 359 | 0.0 | 0.0 | 0.00 | 0.00 | 0.00 | 69 | 1031.2 |
| 20260506011640 | 21 | 0 | 0.0 | 0.0 | 0.00 | 0.00 | 0.00 | 68 | 1031.7 |
| 20260506011136 | 21 | 0 | 0.0 | 0.0 | 0.00 | 0.00 | 0.00 | 68 | 1031.5 |
| 20260506010634 | 22 | 0 | 0.0 | 0.0 | 0.00 | 0.00 | 0.00 | 68 | 1031.2 |
| 20260506010131 | 22 | 0 | 0.0 | 0.0 | 0.00 | 0.00 | 0.00 | 68 | 1031.0 |
| 20260506005622 | 22 | 0 | 0.0 | 0.0 | 0.00 | 0.00 | 0.00 | 67 | 1031.2 |
| 20260506005119 | 22 | 0 | 0.0 | 0.0 | 0.00 | 0.00 | 0.00 | 66 | 1031.2 |
| 20260506004616 | 22 | 0 | 0.0 | 0.0 | 0.00 | 0.00 | 0.00 | 66 | 1031.1 |
| 20260506004113 | 22 | 0 | 0.0 | 0.0 | 0.00 | 0.00 | 0.00 | 67 | 1031.1 |
| 20260506003609 | 22 | 0 | 0.0 | 0.0 | 0.00 | 0.00 | 0.00 | 66 | 1030.7 |
| 20260506003105 | 22 | 1 | 0.0 | 0.0 | 0.00 | 0.00 | 0.00 | 65 | 1030.9 |
| 20260506002601 | 22 | 4 | 0.0 | 0.0 | 0.00 | 0.00 | 0.00 | 66 | 1031.1 |
| 20260506002057 | 22 | 353 | 0.0 | 0.0 | 0.00 | 0.00 | 0.00 | 65 | 1031.0 |
| 20260506001553 | 22 | 356 | 0.0 | 0.0 | 0.00 | 0.00 | 0.00 | 65 | 1031.2 |
| 20260506001051 | 22 | 353 | 0.0 | 0.0 | 0.00 | 0.00 | 0.00 | 65 | 1031.3 |
| 20260506000548 | 22 | 354 | 0.0 | 0.0 | 0.00 | 0.00 | 0.00 | 65 | 1031.4 |
| 20260506000045 | 23 | 2 | 0.0 | 0.0 | 0.00 | 0.00 | 0.00 | 65 | 1031.5 |
| 20260505235543 | 23 | 358 | 0.0 | 0.0 | 0.00 | 0.00 | 0.00 | 63 | 1031.3 |
| 20260505235040 | 23 | 2 | 0.0 | 0.0 | 0.00 | 0.00 | 0.00 | 63 | 1031.5 |
| 20260505234537 | 23 | 350 | 0.0 | 0.0 | 0.00 | 0.00 | 0.00 | 63 | 1031.3 |
| 20260505234034 | 23 | 344 | 0.0 | 0.0 | 0.00 | 0.00 | 0.00 | 64 | 1031.2 |
| 20260505233531 | 23 | 345 | 0.0 | 0.0 | 0.00 | 0.00 | 0.00 | 64 | 1031.2 |
| 20260505233029 | 23 | 345 | 0.0 | 0.0 | 0.00 | 0.00 | 0.00 | 63 | 1031.5 |
| 20260505232526 | 23 | 350 | 0.0 | 0.0 | 0.00 | 0.00 | 0.00 | 62 | 1031.7 |
| 20260505232023 | 23 | 353 | 0.0 | 0.0 | 0.00 | 0.00 | 0.00 | 63 | 1031.7 |
| 20260505231520 | 23 | 355 | 0.0 | 0.0 | 0.00 | 0.00 | 0.00 | 63 | 1031.6 |
| 20260505231013 | 23 | 353 | 1.6 | 1.6 | 0.00 | 0.00 | 0.00 | 62 | 1031.7 |
| 20260505230510 | 23 | 12 | 0.0 | 0.0 | 0.00 | 0.00 | 0.00 | 64 | 1031.8 |
| 20260505230007 | 23 | 351 | 1.6 | 1.6 | 0.00 | 0.00 | 0.00 | 63 | 1031.7 |
| 20260505225504 | 23 | 6 | 0.0 | 0.0 | 0.00 | 0.00 | 0.00 | 63 | 1031.8 |
| 20260505224959 | 23 | 353 | 1.6 | 3.2 | 0.00 | 0.00 | 0.00 | 62 | 1032.0 |
| 20260505224456 | 23 | 355 | 3.2 | 3.2 | 0.00 | 0.00 | 0.00 | 61 | 1031.9 |
| 20260505223954 | 23 | 0 | 1.6 | 1.6 | 0.00 | 0.00 | 0.00 | 62 | 1031.8 |
| 20260505223450 | 23 | 14 | 1.6 | 1.6 | 0.00 | 0.00 | 0.00 | 62 | 1032.0 |
| 20260505222947 | 23 | 9 | 0.0 | 0.0 | 0.00 | 0.00 | 0.00 | 62 | 1031.8 |
| 20260505222443 | 23 | 10 | 1.6 | 3.2 | 0.00 | 0.00 | 0.00 | 62 | 1031.7 |
| 20260505221939 | 23 | 354 | 0.0 | 0.0 | 0.00 | 0.00 | 0.00 | 63 | 1031.7 |
| 20260505221437 | 23 | 317 | 4.8 | 4.8 | 0.00 | 0.00 | 0.00 | 64 | 1031.8 |
| 20260505220934 | 23 | 8 | 0.0 | 0.0 | 0.00 | 0.00 | 0.00 | 63 | 1031.7 |
| 20260505220430 | 23 | 316 | 4.8 | 6.4 | 0.00 | 0.00 | 0.00 | 63 | 1031.3 |
| 20260505215927 | 23 | 8 | 0.0 | 0.0 | 0.00 | 0.00 | 0.00 | 62 | 1031.7 |
| 20260505215425 | 23 | 1 | 3.2 | 3.2 | 0.00 | 0.00 | 0.00 | 64 | 1031.8 |
| 20260505214924 | 23 | 18 | 1.6 | 1.6 | 0.00 | 0.00 | 0.00 | 65 | 1031.8 |
| 20260505214421 | 23 | 4 | 1.6 | 1.6 | 0.00 | 0.00 | 0.00 | 63 | 1031.9 |
| 20260505213918 | 23 | 359 | 0.0 | 0.0 | 0.00 | 0.00 | 0.00 | 61 | 1031.8 |
| 20260505213416 | 23 | 17 | 1.6 | 3.2 | 0.00 | 0.00 | 0.00 | 61 | 1031.9 |
| 20260505212912 | 23 | 13 | 3.2 | 3.2 | 0.00 | 0.00 | 0.00 | 66 | 1031.9 |
| 20260505212409 | 23 | 355 | 1.6 | 1.6 | 0.00 | 0.00 | 0.00 | 64 | 1032.0 |
| 20260505211905 | 23 | 343 | 1.6 | 3.2 | 0.00 | 0.00 | 0.00 | 64 | 1031.7 |
| 20260505211403 | 24 | 8 | 1.6 | 3.2 | 0.00 | 0.00 | 0.00 | 62 | 1031.7 |
| 20260505210859 | 24 | 313 | 3.2 | 4.8 | 0.00 | 0.00 | 0.00 | 61 | 1031.8 |
| 20260505210356 | 24 | 355 | 0.0 | 0.0 | 0.00 | 0.00 | 0.00 | 60 | 1031.8 |
| 20260505205853 | 23 | 344 | 1.6 | 3.2 | 0.00 | 0.00 | 0.00 | 66 | 1031.7 |
| 20260505205351 | 23 | 22 | 1.6 | 1.6 | 0.00 | 0.00 | 0.00 | 64 | 1031.6 |
| 20260505204848 | 24 | 1 | 1.6 | 3.2 | 0.00 | 0.00 | 0.00 | 61 | 1031.9 |
| 20260505204346 | 24 | 339 | 3.2 | 3.2 | 0.00 | 0.00 | 0.00 | 60 | 1031.9 |
| 20260505203843 | 24 | 354 | 3.2 | 4.8 | 0.00 | 0.00 | 0.00 | 64 | 1031.8 |
| 20260505203339 | 23 | 15 | 0.0 | 0.0 | 0.00 | 0.00 | 0.00 | 61 | 1032.0 |
| 20260505202836 | 23 | 3 | 4.8 | 4.8 | 0.00 | 0.00 | 0.00 | 60 | 1031.8 |
| 20260505202332 | 23 | 12 | 1.6 | 3.2 | 0.00 | 0.00 | 0.00 | 65 | 1032.0 |
| 20260505201829 | 23 | 23 | 1.6 | 1.6 | 0.00 | 0.00 | 0.00 | 64 | 1032.0 |
| 20260505201326 | 23 | 358 | 0.0 | 0.0 | 0.00 | 0.00 | 0.00 | 64 | 1031.9 |
| 20260505200825 | 23 | 15 | 0.0 | 0.0 | 0.00 | 0.00 | 0.00 | 64 | 1032.5 |
| 20260505200321 | 23 | 2 | 1.6 | 3.2 | 0.00 | 0.00 | 0.00 | 63 | 1032.4 |
| 20260505195816 | 24 | 348 | 1.6 | 3.2 | 0.00 | 0.00 | 0.00 | 60 | 1032.8 |
| 20260505195314 | 23 | 31 | 3.2 | 3.2 | 0.00 | 0.00 | 0.00 | 62 | 1032.4 |
| 20260505194811 | 24 | 9 | 0.0 | 0.0 | 0.00 | 0.00 | 0.00 | 61 | 1032.8 |
| 20260505194308 | 23 | 6 | 0.0 | 0.0 | 0.00 | 0.00 | 0.00 | 58 | 1032.7 |
| 20260505193803 | 23 | 28 | 0.0 | 0.0 | 0.00 | 0.00 | 0.00 | 64 | 1032.6 |
| 20260505193301 | 23 | 344 | 1.6 | 1.6 | 0.00 | 0.00 | 0.00 | 64 | 1032.6 |
| 20260505192759 | 23 | 19 | 1.6 | 3.2 | 0.00 | 0.00 | 0.00 | 62 | 1032.8 |
| 20260505192257 | 24 | 13 | 4.8 | 4.8 | 0.00 | 0.00 | 0.00 | 62 | 1032.6 |
| 20260505191754 | 23 | 350 | 0.0 | 1.6 | 0.00 | 0.00 | 0.00 | 63 | 1032.6 |
| 20260505191253 | 23 | 15 | 3.2 | 3.2 | 0.00 | 0.00 | 0.00 | 61 | 1033.0 |
| 20260505190749 | 23 | 335 | 0.0 | 1.6 | 0.00 | 0.00 | 0.00 | 63 | 1033.1 |
| 20260505190244 | 23 | 344 | 3.2 | 3.2 | 0.00 | 0.00 | 0.00 | 58 | 1033.1 |
| 20260505185740 | 25 | 335 | 3.2 | 3.2 | 0.00 | 0.00 | 0.00 | 58 | 1033.1 |
| 20260505185237 | 24 | 343 | 0.0 | 0.0 | 0.00 | 0.00 | 0.00 | 63 | 1033.4 |
| 20260505184733 | 23 | 20 | 0.0 | 0.0 | 0.00 | 0.00 | 0.00 | 60 | 1033.3 |
| 20260505184231 | 23 | 21 | 0.0 | 1.6 | 0.00 | 0.00 | 0.00 | 63 | 1033.4 |
| 20260505183727 | 23 | 13 | 4.8 | 4.8 | 0.00 | 0.00 | 0.00 | 64 | 1033.4 |
| 20260505183225 | 23 | 355 | 1.6 | 1.6 | 0.00 | 0.00 | 0.00 | 61 | 1033.4 |
| 20260505182721 | 24 | 5 | 0.0 | 0.0 | 0.00 | 0.00 | 0.00 | 63 | 1033.4 |
| 20260505182218 | 23 | 13 | 0.0 | 0.0 | 0.00 | 0.00 | 0.00 | 61 | 1033.7 |
| 20260505181713 | 22 | 358 | 0.0 | 0.0 | 0.00 | 0.00 | 0.00 | 63 | 1033.5 |
| 20260505181212 | 22 | 24 | 0.0 | 0.0 | 0.00 | 0.00 | 0.00 | 64 | 1033.7 |
| 20260505180708 | 23 | 307 | 4.8 | 6.4 | 0.00 | 0.00 | 0.00 | 66 | 1033.8 |
| 20260505180205 | 23 | 17 | 0.0 | 0.0 | 0.00 | 0.00 | 0.00 | 62 | 1033.7 |
| 20260505175701 | 22 | 12 | 0.0 | 0.0 | 0.00 | 0.00 | 0.00 | 65 | 1033.6 |
| 20260505175158 | 22 | 324 | 1.6 | 3.2 | 0.00 | 0.00 | 0.00 | 66 | 1033.7 |
| 20260505174654 | 22 | 344 | 3.2 | 4.8 | 0.00 | 0.00 | 0.00 | 66 | 1033.8 |
| 20260505174150 | 22 | 2 | 0.0 | 1.6 | 0.00 | 0.00 | 0.00 | 66 | 1034.2 |
| 20260505173646 | 22 | 16 | 3.2 | 4.8 | 0.00 | 0.00 | 0.00 | 64 | 1034.1 |
| 20260505173144 | 22 | 13 | 0.0 | 0.0 | 0.00 | 0.00 | 0.00 | 65 | 1034.2 |
| 20260505172641 | 22 | 318 | 3.2 | 3.2 | 0.00 | 0.00 | 0.00 | 66 | 1034.0 |
| 20260505172138 | 23 | 8 | 0.0 | 1.6 | 0.00 | 0.00 | 0.00 | 60 | 1034.3 |
| 20260505171637 | 23 | 24 | 0.0 | 1.6 | 0.00 | 0.00 | 0.00 | 58 | 1034.3 |
| 20260505171135 | 22 | 348 | 0.0 | 0.0 | 0.00 | 0.00 | 0.00 | 66 | 1034.1 |
| 20260505170632 | 22 | 343 | 0.0 | 3.2 | 0.00 | 0.00 | 0.00 | 63 | 1034.3 |
| 20260505170128 | 22 | 330 | 1.6 | 3.2 | 0.00 | 0.00 | 0.00 | 60 | 1034.3 |
| 20260505165623 | 21 | 13 | 1.6 | 3.2 | 0.00 | 0.00 | 0.00 | 67 | 1034.5 |
| 20260505165120 | 22 | 321 | 4.8 | 4.8 | 0.00 | 0.00 | 0.00 | 66 | 1034.6 |
| 20260505164615 | 22 | 354 | 3.2 | 3.2 | 0.00 | 0.00 | 0.00 | 65 | 1034.5 |
| 20260505164114 | 22 | 339 | 3.2 | 3.2 | 0.00 | 0.00 | 0.00 | 64 | 1034.3 |
| 20260505163612 | 22 | 17 | 0.0 | 0.0 | 0.00 | 0.00 | 0.00 | 66 | 1034.5 |
| 20260505163109 | 22 | 346 | 3.2 | 4.8 | 0.00 | 0.00 | 0.00 | 65 | 1034.8 |
| 20260505162606 | 22 | 25 | 3.2 | 3.2 | 0.00 | 0.00 | 0.00 | 63 | 1034.4 |
| 20260505162104 | 22 | 337 | 1.6 | 1.6 | 0.00 | 0.00 | 0.00 | 64 | 1034.7 |
| 20260505161601 | 21 | 1 | 0.0 | 1.6 | 0.00 | 0.00 | 0.00 | 66 | 1034.5 |
| 20260505161058 | 21 | 335 | 4.8 | 6.4 | 0.00 | 0.00 | 0.00 | 68 | 1034.4 |
| 20260505160555 | 21 | 345 | 1.6 | 3.2 | 0.00 | 0.00 | 0.00 | 68 | 1034.6 |
| 20260505153032 | 20 | 27 | 0.0 | 0.0 | 0.00 | 0.00 | 0.00 | 69 | 1034.8 |
| 20260505152529 | 21 | 18 | 0.0 | 0.0 | 0.00 | 0.00 | 0.00 | 70 | 1034.8 |
| 20260505152025 | 21 | 16 | 0.0 | 0.0 | 0.00 | 0.00 | 0.00 | 69 | 1034.6 |
| 20260505151520 | 21 | 356 | 0.0 | 1.6 | 0.00 | 0.00 | 0.00 | 73 | 1034.6 |
| 20260505151018 | 20 | 18 | 0.0 | 0.0 | 0.00 | 0.00 | 0.00 | 69 | 1034.8 |
| 20260505150514 | 20 | 17 | 1.6 | 1.6 | 0.00 | 0.00 | 0.00 | 70 | 1034.8 |
| 20260505140439 | 17 | 354 | 0.0 | 0.0 | 0.00 | 0.00 | 0.00 | 78 | 1035.0 |
| 20260505124852 | 13 | 96 | 0.0 | 0.0 | 0.00 | 0.00 | 0.00 | 90 | 1034.1 |
| 20260505124349 | 13 | 180 | 3.2 | 3.2 | 0.00 | 0.00 | 0.00 | 91 | 1033.8 |
| 20260505123845 | 13 | 178 | 0.0 | 0.0 | 0.00 | 0.00 | 0.00 | 92 | 1033.8 |
| 20260505123342 | 13 | 163 | 0.0 | 0.0 | 0.00 | 0.00 | 0.00 | 92 | 1033.6 |
| 20260505122837 | 12 | 178 | 1.6 | 1.6 | 0.00 | 0.00 | 0.00 | 93 | 1033.7 |
| 20260505122330 | 12 | 171 | 1.6 | 1.6 | 0.00 | 0.00 | 0.00 | 93 | 1033.7 |
| 20260505121826 | 12 | 179 | 1.6 | 3.2 | 0.00 | 0.00 | 0.00 | 93 | 1033.6 |
| 20260505121324 | 12 | 185 | 1.6 | 1.6 | 0.00 | 0.00 | 0.00 | 93 | 1033.5 |
| 20260505120819 | 12 | 173 | 0.0 | 0.0 | 0.00 | 0.00 | 0.00 | 93 | 1033.5 |
| 20260505120316 | 12 | 172 | 1.6 | 1.6 | 0.00 | 0.00 | 0.00 | 93 | 1033.6 |
| 20260505115814 | 12 | 182 | 3.2 | 3.2 | 0.00 | 0.00 | 0.00 | 93 | 1033.4 |
| 20260505115312 | 11 | 21 | 0.0 | 0.0 | 0.00 | 0.00 | 0.00 | 94 | 1033.4 |
| 20260505114810 | 11 | 18 | 0.0 | 0.0 | 0.00 | 0.00 | 0.00 | 93 | 1033.2 |
| 20260505114306 | 11 | 32 | 0.0 | 0.0 | 0.00 | 0.00 | 0.00 | 93 | 1033.1 |
| 20260505113803 | 11 | 39 | 0.0 | 0.0 | 0.00 | 0.00 | 0.00 | 93 | 1033.3 |
| 20260505113259 | 11 | 74 | 0.0 | 0.0 | 0.00 | 0.00 | 0.00 | 93 | 1033.2 |
| 20260505112754 | 11 | 42 | 0.0 | 0.0 | 0.00 | 0.00 | 0.00 | 93 | 1033.0 |
| 20260505112252 | 11 | 42 | 0.0 | 0.0 | 0.00 | 0.00 | 0.00 | 93 | 1033.0 |
| 20260505111753 | 11 | 42 | 0.0 | 0.0 | 0.00 | 0.00 | 0.00 | 92 | 1033.0 |
| 20260505111249 | 11 | 42 | 0.0 | 0.0 | 0.00 | 0.00 | 0.00 | 92 | 1032.8 |
| 20260505110745 | 11 | 44 | 0.0 | 0.0 | 0.00 | 0.00 | 0.00 | 92 | 1032.8 |
| 20260505110243 | 11 | 41 | 0.0 | 0.0 | 0.00 | 0.00 | 0.00 | 92 | 1033.1 |
| 20260505102218 | 12 | 181 | 0.0 | 0.0 | 0.00 | 0.00 | 0.00 | 92 | 1032.5 |
| 20260505101717 | 12 | 188 | 0.0 | 0.0 | 0.00 | 0.00 | 0.00 | 91 | 1032.6 |
| 20260505101212 | 12 | 187 | 0.0 | 0.0 | 0.00 | 0.00 | 0.00 | 90 | 1032.7 |
| 20260505100709 | 12 | 21 | 0.0 | 0.0 | 0.00 | 0.00 | 0.00 | 88 | 1032.6 |
| 20260505100206 | 12 | 21 | 0.0 | 0.0 | 0.00 | 0.00 | 0.00 | 88 | 1032.5 |
| 20260505095701 | 13 | 20 | 0.0 | 0.0 | 0.00 | 0.00 | 0.00 | 88 | 1032.6 |
| 20260505095200 | 13 | 19 | 0.0 | 0.0 | 0.00 | 0.00 | 0.00 | 88 | 1032.6 |
| 20260505094655 | 12 | 20 | 0.0 | 0.0 | 0.00 | 0.00 | 0.00 | 88 | 1032.7 |
| 20260505094151 | 12 | 19 | 0.0 | 0.0 | 0.00 | 0.00 | 0.00 | 88 | 1033.0 |
| 20260505093648 | 12 | 20 | 0.0 | 0.0 | 0.00 | 0.00 | 0.00 | 89 | 1032.9 |
| 20260505093145 | 12 | 20 | 0.0 | 0.0 | 0.00 | 0.00 | 0.00 | 89 | 1032.8 |
| 20260505092642 | 12 | 31 | 0.0 | 0.0 | 0.00 | 0.00 | 0.00 | 89 | 1033.1 |
| 20260505092141 | 12 | 31 | 0.0 | 0.0 | 0.00 | 0.00 | 0.00 | 88 | 1032.9 |
| 20260505091638 | 12 | 31 | 0.0 | 0.0 | 0.00 | 0.00 | 0.00 | 87 | 1032.9 |
| 20260505091136 | 13 | 31 | 0.0 | 0.0 | 0.00 | 0.00 | 0.00 | 87 | 1032.9 |
| 20260505090633 | 13 | 31 | 0.0 | 0.0 | 0.00 | 0.00 | 0.00 | 87 | 1033.1 |
| 20260505090131 | 13 | 31 | 0.0 | 0.0 | 0.00 | 0.00 | 0.00 | 87 | 1033.0 |
| 20260505085628 | 13 | 31 | 0.0 | 0.0 | 0.00 | 0.00 | 0.00 | 86 | 1032.8 |
| 20260505085126 | 13 | 31 | 0.0 | 0.0 | 0.00 | 0.00 | 0.00 | 86 | 1033.1 |
| 20260505084623 | 13 | 31 | 0.0 | 0.0 | 0.00 | 0.00 | 0.00 | 86 | 1033.3 |
| 20260505084122 | 13 | 31 | 0.0 | 0.0 | 0.00 | 0.00 | 0.00 | 86 | 1033.0 |
| 20260505083619 | 13 | 30 | 0.0 | 0.0 | 0.00 | 0.00 | 0.00 | 85 | 1033.1 |
| 20260505083115 | 13 | 30 | 0.0 | 0.0 | 0.00 | 0.00 | 0.00 | 85 | 1033.2 |
| 20260505082611 | 13 | 30 | 0.0 | 0.0 | 0.00 | 0.00 | 0.00 | 84 | 1033.1 |
| 20260505082109 | 13 | 32 | 0.0 | 0.0 | 0.00 | 0.00 | 0.00 | 84 | 1033.5 |
| 20260505081605 | 13 | 32 | 0.0 | 0.0 | 0.00 | 0.00 | 0.00 | 84 | 1033.3 |
| 20260505081102 | 13 | 34 | 0.0 | 0.0 | 0.00 | 0.00 | 0.00 | 83 | 1033.2 |
| 20260505080558 | 13 | 34 | 0.0 | 0.0 | 0.00 | 0.00 | 0.00 | 83 | 1033.3 |
| 20260505080055 | 13 | 34 | 0.0 | 0.0 | 0.00 | 0.00 | 0.00 | 83 | 1033.2 |
| 20260505075551 | 13 | 34 | 0.0 | 0.0 | 0.00 | 0.00 | 0.00 | 82 | 1033.3 |
| 20260505075048 | 13 | 34 | 0.0 | 0.0 | 0.00 | 0.00 | 0.00 | 82 | 1033.2 |
| 20260505074544 | 14 | 34 | 0.0 | 0.0 | 0.00 | 0.00 | 0.00 | 82 | 1033.3 |
| 20260505074042 | 14 | 34 | 0.0 | 0.0 | 0.00 | 0.00 | 0.00 | 80 | 1033.4 |
| 20260505073539 | 14 | 36 | 0.0 | 0.0 | 0.00 | 0.00 | 0.00 | 80 | 1033.6 |
| 20260505073038 | 14 | 16 | 0.0 | 0.0 | 0.00 | 0.00 | 0.00 | 80 | 1033.4 |
| 20260505072533 | 14 | 12 | 0.0 | 0.0 | 0.00 | 0.00 | 0.00 | 79 | 1033.5 |
| 20260505072030 | 14 | 13 | 0.0 | 0.0 | 0.00 | 0.00 | 0.00 | 79 | 1033.4 |
| 20260505071525 | 14 | 13 | 0.0 | 0.0 | 0.00 | 0.00 | 0.00 | 79 | 1033.4 |
| 20260505071024 | 14 | 278 | 0.0 | 0.0 | 0.00 | 0.00 | 0.00 | 80 | 1033.5 |
| 20260505070520 | 14 | 346 | 0.0 | 0.0 | 0.00 | 0.00 | 0.00 | 78 | 1033.4 |
| 20260505070016 | 14 | 346 | 0.0 | 0.0 | 0.00 | 0.00 | 0.00 | 80 | 1033.5 |
| 20260505065512 | 14 | 346 | 0.0 | 0.0 | 0.00 | 0.00 | 0.00 | 81 | 1033.4 |
| 20260505065009 | 14 | 340 | 0.0 | 0.0 | 0.00 | 0.00 | 0.00 | 81 | 1033.4 |
| 20260505064506 | 15 | 353 | 0.0 | 0.0 | 0.00 | 0.00 | 0.00 | 78 | 1033.4 |
| 20260505064005 | 15 | 353 | 0.0 | 0.0 | 0.00 | 0.00 | 0.00 | 78 | 1033.4 |
| 20260505063501 | 15 | 351 | 0.0 | 0.0 | 0.00 | 0.00 | 0.00 | 79 | 1033.8 |
| 20260505062957 | 15 | 354 | 0.0 | 0.0 | 0.00 | 0.00 | 0.00 | 77 | 1033.4 |
| 20260505062454 | 15 | 355 | 0.0 | 0.0 | 0.00 | 0.00 | 0.00 | 76 | 1033.3 |
| 20260505061951 | 15 | 355 | 0.0 | 0.0 | 0.00 | 0.00 | 0.00 | 74 | 1033.5 |
| 20260505061449 | 15 | 355 | 0.0 | 0.0 | 0.00 | 0.00 | 0.00 | 73 | 1033.5 |
| 20260505060946 | 15 | 355 | 0.0 | 0.0 | 0.00 | 0.00 | 0.00 | 74 | 1033.5 |
| 20260505060443 | 15 | 355 | 0.0 | 0.0 | 0.00 | 0.00 | 0.00 | 74 | 1033.7 |
| 20260505055940 | 15 | 352 | 0.0 | 0.0 | 0.00 | 0.00 | 0.00 | 74 | 1033.8 |
| 20260505055436 | 15 | 349 | 0.0 | 0.0 | 0.00 | 0.00 | 0.00 | 74 | 1033.8 |
| 20260505054932 | 15 | 355 | 0.0 | 0.0 | 0.00 | 0.00 | 0.00 | 77 | 1033.7 |
| 20260505054430 | 15 | 3 | 0.0 | 0.0 | 0.00 | 0.00 | 0.00 | 78 | 1033.4 |
| 20260505053928 | 15 | 7 | 0.0 | 0.0 | 0.00 | 0.00 | 0.00 | 78 | 1033.7 |
| 20260505053425 | 14 | 7 | 0.0 | 0.0 | 0.00 | 0.00 | 0.00 | 79 | 1033.7 |